Regional Weather Roundup
Issued by NWS

Home | Current Version | Previous Version | Graphics & Text | Print | Product List | Glossary On
Versions: 1 2 3 4 5 6 7 8 9 10 11 12 13 14 15 16 17 18 19 20 21 22 23 24 25 26 27 28 29 30 31 32 33 34 35 36 37 38 39 40 41 42 43 44 45 46 47 48 49 50
000
ASUS43 KMPX 281701
RWRMN
WEATHER ROUNDUP FOR MINNESOTA
NATIONAL WEATHER SERVICE TWIN CITIES/CHANHASSEN MN
1200 PM CDT FRI AUG 28 2015


NOTE: "FAIR" INDICATES FEW OR NO CLOUDS BELOW 12,000 FEET WITH NO
SIGNIFICANT WEATHER AND/OR OBSTRUCTIONS TO VISIBILITY. N/A MEANS
CURRENT SKY AND/OR WEATHER CONDITIONS ARE NOT AVAILABLE.

MNZ060>063-068>070-281800-
   Twin Cities Metro

CITY           SKY/WX    TMP DP  RH WIND       PRES   REMARKS
TWIN CITIES    CLOUDY    70  63  78 SE12      30.00F
ST PAUL        CLOUDY    70  64  81 E10       30.01F
CRYSTAL        PTSUNNY   73  62  68 S9        29.99S
BLAINE         PTSUNNY   72  66  83 SE7       30.01S
LAKEVILLE      CLOUDY    66  66 100 E6        30.00S
EDEN PRAIRIE   PTSUNNY   72  63  73 E6        29.99S
SOUTH ST PAUL  CLOUDY    69  63  79 E3        30.01S
LAKE ELMO      FAIR      68  64  88 E5        30.03S
$$
MNZ001>005-007-008-013>017-022>024-027-028-281800-
   Northwest Minnesota

CITY           SKY/WX    TMP DP  RH WIND       PRES   REMARKS
BEMIDJI        MOSUNNY   76  66  71 SW7       29.97R
HALLOCK        MOSUNNY   75  66  73 S16G23    29.81S
ROSEAU         LGT RAIN  70  64  83 S16       29.82R
WARROAD        CLOUDY    70  66  88 S8G16     29.82S
THIEF RVR FALL MOSUNNY  N/A N/A N/A S15       29.87F
CROOKSTON      PTSUNNY   75  68  78 S8        29.92F THUNDER
FOSSTON        MOSUNNY   75  64  69 SW10      29.96S
DETROIT LAKES  MOSUNNY   73  64  73 S13       29.97F
MOORHEAD       MOSUNNY   75  66  73 S10       29.95S
PARK RAPIDS    MOSUNNY   77  64  64 SW14      29.97S
MAHNOMEN       PTSUNNY   73  66  78 SW12      29.96S
$$
MNZ006-009>011-018-025>026-281800-
   North Central Minnesota

CITY           SKY/WX    TMP DP  RH WIND       PRES   REMARKS
BAUDETTE       CLOUDY    66  62  87 SW8G23    29.82F
FLAG ISLAND    CLOUDY    66  64  94 CALM      29.85R
INTL FALLS     LGT RAIN  68  65  90 SW10G21   29.90F
WASKISH        PTSUNNY   72  68  88 SW8       29.93F
BIG FORK       CLOUDY    70  66  88 SW7       29.97R
LONGVILLE      SUNNY     75  66  73 SW6       29.97R
GRAND RAPIDS     N/A     72  64  78 W8        29.98R
CRANE LAKE     CLOUDY    68  64  88 SW6       29.96R
ORR            CLOUDY    66  63  88 CALM      29.94R
COOK           CLOUDY    68  64  88 SW8       29.97R
WALKER         FAIR      73  65  75 SW13      29.96S
$$
MNZ012-019>021-037-281800-
   Northeast Minnesota

CITY           SKY/WX    TMP DP  RH WIND       PRES   REMARKS
DULUTH         PTSUNNY   70  62  76 SW15      29.98F
ELY            CLOUDY    68  63  83 CALM      29.95R
HIBBING        CLOUDY    70  64  81 VRB7      29.97R
EVELETH        CLOUDY    70  64  83 W9        29.98R
DULUTH HARBOR  MOSUNNY   72  64  78 SW14      29.99S
TWO HARBORS    SUNNY     73  64  73 S8        29.95F
SILVER BAY     PTSUNNY   70  61  73 S5        29.95F
GRAND MARAIS     N/A     56  49  77 W5        29.96R
G MARAIS ARPRT SUNNY     70  57  64 S3        29.97F
$$
MNZ029>031-032-039>041-046>048-054>057-064-281800-
   West Central Minnesota

CITY           SKY/WX    TMP DP  RH WIND       PRES   REMARKS
FERGUS FALLS   CLOUDY    70  66  88 SW9       29.97S
WHEATON        PTSUNNY   70  64  83 S7        29.99R
MORRIS         SUNNY     75  66  73 SE10      29.98R
ALEXANDRIA     MOSUNNY   74  64  71 S13       30.01R
ELBOW LAKE     PTSUNNY   71  66  85 S7        29.98S
WADENA         SUNNY     75  63  64 SW12      29.97S
GLENWOOD       SUNNY     73  64  73 S8        30.01R
APPLETON       SUNNY     75  63  64 S6        29.98R
BENSON         MOSUNNY   73  63  68 S3        29.99S
ORTONVILLE     MOSUNNY   73  64  73 SE7       29.98R
MADISON        MOSUNNY   72  63  73 CALM      29.98R
WILLMAR        FAIR      75  66  73 SE9       30.01R
$$
MNZ033>034-036-042>043-049>051-058-059-281800-
   Central Minnesota

CITY           SKY/WX    TMP DP  RH WIND       PRES   REMARKS
ST CLOUD       MOSUNNY   74  63  68 SE9       30.00S
SAUK CENTRE    FAIR      73  64  74 S8        30.01R
PAYNESVILLE    SUNNY     72  63  74 E3        30.01R
AITKIN         SUNNY     77  64  65 SW10      29.97F
PINE RIVER     SUNNY     75  64  69 SW7       30.00S
BRAINERD       SUNNY     75  63  66 S17       29.98F
STAPLES        SUNNY     75  63  64 S13       29.98F
LONG PRAIRIE   PTSUNNY   72  63  73 S9        30.02R
LITTLE FALLS   MOSUNNY   72  61  68 SW9       30.01S
LITCHFIELD     MOSUNNY   75  64  69 S5        30.00R
BUFFALO        MOSUNNY   74  61  63 SE5       30.01R
MAPLE LAKE     MOSUNNY   74  65  73 SE5       30.01R
$$
MNZ037-044-045-052-053-281800-
   East Central Minnesota

CITY           SKY/WX    TMP DP  RH WIND       PRES   REMARKS
PRINCETON      MOSUNNY   75  64  69 SE6       30.01S
MORA           MOSUNNY   72  63  73 S8        30.03S
CAMBRIDGE      MOSUNNY   75  63  64 SE3       29.99F
RUSH CITY      PTSUNNY   73  64  71 S7        30.02F
MOOSE LAKE     MOSUNNY   73  63  68 S8        29.99S
HINCKLEY       FAIR      73  64  73 S13       30.01S
CLOQUET        PTSUNNY   73  63  68 SW9       30.00S
MCGREGOR       SUNNY     75  64  69 S8        29.98F
$$
MNZ071>073-080-081-089-090-097-098-281800-
   Southwest Minnesota

CITY           SKY/WX    TMP DP  RH WIND       PRES   REMARKS
MONTEVIDEO     MOSUNNY   77  66  69 SE5       30.00R
GRANITE FALLS  PTSUNNY   74  64  71 SE8       30.00R
CANBY          PTSUNNY   72  64  78 E6        29.99R
MARSHALL       PTSUNNY   72  61  68 SE13      29.99R
REDWOOD FALLS  PTSUNNY   73  63  70 SE18G24   29.98R
OLIVIA         PTSUNNY   72  61  68 SE15G23   29.97S
PIPESTONE      PTSUNNY   70  63  78 SE14      29.97S
WINDOM         PTSUNNY   72  63  73 E17G23    29.98S
WORTHINGTON    CLOUDY    64  59  82 E16G26    29.96S
JACKSON        LGT SNOW  64  64 100 E17G25    29.98R
TRACY          PTSUNNY   72  64  76 SE16      29.99R
SLAYTON        CLOUDY    68  64  86 E16G22    29.99S
$$
MNZ065>067-074>077-082>085-091>093-281800-
   South Central Minnesota

CITY           SKY/WX    TMP DP  RH WIND       PRES   REMARKS
MANKATO        PTSUNNY   70  61  73 SE15      29.99R
NEW ULM        PTSUNNY   72  63  73 SE14G20   29.99S
ST JAMES       PTSUNNY   72  64  78 E20G29    29.99S
FAIRMONT       CLOUDY    64  59  82 E12G18    29.98R
GLENCOE        CLOUDY    76  65  67 SE10      29.99R
FARIBAULT      DRIZZLE   70  64  83 SE12G17   30.00R
OWATONNA       CLOUDY    68  63  83 SE12G17   30.00F
WASECA         LGT RAIN  64  63  94 MISG      30.01S
ALBERT LEA     DRIZZLE   63  63 100 E10       30.00R
$$
MNZ078>079-086>088-094>096-281800-
   Southeast Minnesota

CITY           SKY/WX    TMP DP  RH WIND       PRES   REMARKS
ROCHESTER      LGT RAIN  64  62  93 SE12      30.04F
RED WING       LGT RAIN  66  64  94 E8        30.01S
STANTON        DRIZZLE   69  64  83 SE12G17   29.98S
DODGE CENTER   LGT RAIN  64  63  94 E9        30.01F
WINONA         RAIN      63  63 100 SE5       30.06F
AUSTIN         LGT RAIN  63  61  94 E13       30.01R
PRESTON        LGT RAIN  61  57  87 E9G18     30.05F
$$
ABBREVIATIONS USED IN REMARKS
   TC - TEMPERATURES IN CELSIUS
  WCI - WIND CHILL INDEX
   HX - HEAT INDEX
  VSB - VISIBILITY
$$


USA.gov is the U.S. government's official web portal to all federal, state and local government web resources and services.